Regional Weather Roundup
Issued by NWS

Home | Current Version | Previous Version | Text Only | Print | Product List | Glossary On
Versions: 1 2 3 4 5 6 7 8 9 10 11 12 13 14 15 16 17 18 19 20 21 22 23 24 25 26 27 28 29 30 31 32 33 34 35 36 37 38 39 40 41 42 43 44 45 46 47 48 49 50
000
ASUS45 KABQ 300001
RWRNM
NEW MEXICO REGIONAL WEATHER ROUNDUP
NATIONAL WEATHER SERVICE ALBUQUERQUE NM
600 PM MDT SAT AUG 29 2015

NOTE: "FAIR" MEANS FEW OR NO CLOUDS BELOW 12,000 FEET AGL WITH NO
       SIGNIFICANT WEATHER OR OBSTRUCTIONS TO VISION.

      THIS PRODUCT IS RELEASED AS TWO VERSIONS.  ONE VERSION NEAR
      THE TOP OF THE HOUR CONTAINING PRELIMINARY DATA FROM ALBUQUERQUE
      AND OTHER STATIONS.  A FINAL VERSION WITH ADDITIONAL DATA IS
      ISSUED ABOUT 10 MINUTES AFTER THE HOUR.

NMZ501-503-504-510>518-300100-
NORTHWEST PLATEAU/NORTHCENTRAL MOUNTAINS

CITY           SKY/WX    TMP DP  RH WIND       PRES   REMARKS
FARMINGTON     SUNNY     89  35  14 VRB3      30.14F
6HR MIN TEMP:  82; 6HR MAX TEMP:  91;

SANTA FE       CLOUDY    78  47  33 N5        30.28F
6HR MIN TEMP:  67; 6HR MAX TEMP:  84; 6HR PCP:  0.22;

TAOS           CLOUDY    73  39  29 SE15      30.37R

$$
NMZ402-403-502-505>509-300100-
WESTCENTRAL MOUNTAINS/SOUTHWEST MOUNTAINS

CITY           SKY/WX    TMP DP  RH WIND       PRES   REMARKS
GALLUP         PTSUNNY   83  39  21 VRB5      30.22F
6HR MIN TEMP:  80; 6HR MAX TEMP:  88;

SILVER CITY      N/A     84  50  30 N3        30.19R

$$
NMZ407-409-411-412-300100-
SOUTHERN DESERTS

CITY           SKY/WX    TMP DP  RH WIND       PRES   REMARKS
DEMING         MOSUNNY   91  50  24 E7        30.07S
6HR MIN TEMP:  85; 6HR MAX TEMP:  93;

HOLLOMAN AFB   PTSUNNY   81  59  47 NW12      30.06F
ALAMOGORDO     PTSUNNY   82  57  42 E5        30.09F
T OR C         SUNNY     91  45  20 E8        30.08F
6HR MIN TEMP:  82; 6HR MAX TEMP:  93;


$$
NMZ519>523-300100-
CENTRAL VALLEYS/CENTRAL HIGHLANDS

CITY           SKY/WX    TMP DP  RH WIND       PRES   REMARKS
ALBUQUERQUE    PTSUNNY   84  45  25 E17       30.18F
6HR MIN TEMP:  78; 6HR MAX TEMP:  89;

DOUBLE EAGLE   PTSUNNY   81  45  28 E10       30.24S
CLINES CORNERS CLOUDY    74  45  35 E8        30.33S
6HR MIN TEMP:  74; 6HR MAX TEMP:  78;

BELEN          FAIR      87  42  20 E14       30.16F
6HR MIN TEMP:  82; 6HR MAX TEMP:  92;

SOCORRO        NOT AVBL

$$
NMZ524>526-539-540-300100-
SOUTHCENTRAL MOUNTAINS

CITY           SKY/WX    TMP DP  RH WIND       PRES   REMARKS
RUIDOSO        NOT AVBL

$$
NMZ527>531-300100-
NORTHEAST HIGHLANDS/NORTHEAST PLAINS

CITY           SKY/WX    TMP DP  RH WIND       PRES   REMARKS
LAS VEGAS      CLOUDY    76  44  32 VRB3      30.33F
6HR MIN TEMP:  70; 6HR MAX TEMP:  83;

RATON          PTSUNNY   74  47  38 SW14      30.28R
6HR MIN TEMP:  72; 6HR MAX TEMP:  86; 6HR PCP: TRACE;

CLAYTON        SUNNY     82  44  26 E8        30.22
6HR MIN TEMP:  82; 6HR MAX TEMP:  86;


$$
NMZ532>537-300100-
EASTCENTRAL PLAINS

CITY           SKY/WX    TMP DP  RH WIND       PRES   REMARKS
TUCUMCARI      MOSUNNY   86  54  33 E12       30.12R
6HR MIN TEMP:  84; 6HR MAX TEMP:  92;

CANNON AFB     PTSUNNY   81  58  45 S8        30.17R
6HR MIN TEMP:  79; 6HR MAX TEMP:  87;

CLOVIS AIRPORT PTSUNNY   81  57  44 S12       30.18R

$$
NMZ028-029-538-300100-
SOUTHEAST PLAINS

CITY           SKY/WX    TMP DP  RH WIND       PRES   REMARKS
ROSWELL        SUNNY     89  54  30 NE5       30.08S
6HR MIN TEMP:  84; 6HR MAX TEMP:  91;

ARTESIA        SUNNY     88  55  33 SE10      30.08S
CARLSBAD       NOT AVBL


$$


USA.gov is the U.S. government's official web portal to all federal, state and local government web resources and services.